This is the latest recevied weather packets stored in our database for station/object KF6RAL-6. If no packets are shown the sender has not sent any weather packets the latest 10 day(s).
| Time | Temp. | Humidity | Pressure | Rain* | Wind** | Luminosity | Snow |
|---|---|---|---|---|---|---|---|
| 1777835896 | 17.78° C | 61% | 1012.1 hPa | 0 mm | - | - | - |
| 1777835475 | 17.78° C | 61% | 1012.2 hPa | 0 mm | - | - | - |
| 1777835054 | 17.78° C | 57% | 1013.1 hPa | 0 mm | - | - | - |
| 1777834632 | 17.78° C | 59% | 1013.1 hPa | 0 mm | - | - | - |
| 1777834211 | 17.78° C | 59% | 1013.2 hPa | 0 mm | - | - | - |
| 1777833790 | 18.33° C | 53% | 1012.9 hPa | 0 mm | - | - | - |
| 1777833369 | 17.78° C | 54% | 1013.2 hPa | 0 mm | - | - | - |
| 1777832948 | 18.33° C | 49% | 1013.1 hPa | 0 mm | - | - | - |
| 1777832527 | 18.89° C | 49% | 1013.1 hPa | 0 mm | - | - | - |
| 1777832106 | 18.89° C | 35% | 1013.3 hPa | 0 mm | - | - | - |
| 1777831685 | 18.89° C | 37% | 1013.4 hPa | 0 mm | - | - | - |
| 1777831264 | 18.33° C | 40% | 1013.4 hPa | 0 mm | - | - | - |
| 1777830844 | 18.33° C | 39% | 1013.5 hPa | 0 mm | - | - | - |
| 1777830423 | 18.89° C | 45% | 1013.4 hPa | 0 mm | - | - | - |
| 1777830001 | 18.89° C | 43% | 1013.6 hPa | 0 mm | - | - | - |
| 1777829580 | 18.33° C | 43% | 1013.6 hPa | 0 mm | - | - | - |
| 1777829159 | 18.33° C | 44% | 1013.6 hPa | 0 mm | - | - | - |
| 1777828317 | 16.67° C | 51% | 1013.4 hPa | 0 mm | - | - | - |
| 1777827475 | 16.67° C | 51% | 1013.5 hPa | 0 mm | - | - | - |
| 1777827056 | 16.67° C | 49% | 1013.6 hPa | 0 mm | - | - | - |
| 1777826633 | 16.11° C | 53% | 1013.5 hPa | 0 mm | - | - | - |
| 1777826213 | 16.67° C | 55% | 1014 hPa | 0 mm | - | - | - |
| 1777825791 | 16.67° C | 54% | 1014 hPa | 0 mm | - | - | - |
| 1777825371 | 16.67° C | 54% | 1014 hPa | 0 mm | - | - | - |
| 1777824949 | 16.67° C | 55% | 1014.1 hPa | 0 mm | - | - | - |
* Rain latest hour (hover to see other rain measurements)
** Current wind speed in m/s (hover to see current wind gust speed)